Wind_Speed
30 30 30 28 27 28 28 28 29 27 27 26 28 29 29 29 29 29 29 29 29 29 29 30 30 30 30 31 31 31 31 31 31 32 33 33 34 34 34 34 34 34 34 33
33 33 34 32 30 29 29 30 30 30 28 29 30 31 31 31 31 31 31 31 31 31 32 32 32 31 31 31 31 31 31 31 31 32 32 33 33 34 33 33 33 33 33 33
36 35 36 35 33 33 33 32 32 31 31 32 32 32 32 33 33 33 33 33 34 33 33 32 32 32 32 32 32 32 32 32 32 32 33 33 33 33 33 33 33 33 33 33
39 39 39 37 35 35 35 34 34 34 34 35 35 34 34 34 35 35 35 34 35 35 35 35 34 34 34 33 33 33 33 33 33 33 33 33 33 33 33 33 33 34 34 34
42 42 41 39 37 37 37 37 37 37 36 36 36 36 36 36 36 37 37 37 37 37 36 36 35 35 35 35 35 35 35 35 35 34 34 34 34 34 34 34 34 34 34 34
44 45 44 41 40 39 40 41 39 39 38 38 38 38 38 38 38 38 39 38 38 37 37 37 37 36 36 36 35 35 35 35 35 35 35 34 34 34 34 34 34 34 34 34
45 46 45 43 42 42 42 42 41 41 41 40 40 40 40 40 40 40 39 39 39 39 38 38 38 37 37 37 36 36 36 36 36 36 36 35 35 35 35 35 35 35 34 34
46 47 45 43 44 43 43 44 44 44 44 43 43 43 43 42 41 40 40 40 40 40 39 39 39 39 38 38 38 38 38 37 37 37 37 36 37 36 36 37 37 36 36 36
48 47 45 45 45 45 45 46 46 47 46 46 46 46 45 44 42 42 41 41 41 41 41 40 40 41 40 39 39 39 39 39 39 39 38 38 38 38 38 38 38 37 37 37
50 47 47 47 47 47 48 48 49 49 49 48 48 48 47 46 44 43 43 43 43 43 42 42 42 42 42 42 41 41 40 40 40 40 39 39 39 39 38 37 37 37 37 36
51 49 49 49 50 50 51 51 51 51 51 50 50 49 48 47 46 46 45 45 45 44 44 43 44 44 44 44 43 43 42 42 41 41 40 40 39 39 38 38 38 37 37 36
51 50 51 50 50 51 52 52 52 52 52 51 51 49 49 48 48 47 47 46 45 44 44 44 44 44 44 45 44 44 44 43 43 42 41 40 40 39 39 39 38 38 38 37
52 51 51 51 51 51 52 52 51 52 52 52 51 50 49 48 47 47 46 46 45 44 44 44 44 43 44 45 45 45 44 44 43 43 42 41 40 39 39 39 38 38 38 38
52 52 52 51 51 51 52 51 51 51 51 50 50 49 48 48 47 46 46 46 45 45 44 44 44 44 44 45 45 44 44 43 43 42 42 41 40 39 39 39 38 38 37 37
52 52 53 52 51 51 51 51 50 50 50 49 49 49 49 48 47 46 46 46 45 45 44 44 44 43 44 45 45 44 43 42 42 42 41 40 40 39 39 38 38 37 37 37
51 52 52 51 50 50 50 50 50 49 49 49 48 48 47 47 47 46 45 45 45 44 43 44 44 44 44 45 44 44 42 42 41 40 40 39 39 39 39 38 38 37 37 38
50 50 50 50 50 49 49 49 49 49 48 48 48 47 48 47 47 46 46 46 45 44 44 45 45 45 44 44 43 42 41 40 40 39 39 39 39 39 38 38 37 37 37 38
48 48 48 49 49 48 48 48 48 48 48 48 48 47 47 46 46 45 45 46 45 45 45 45 45 44 43 42 41 41 40 40 39 39 38 38 38 38 38 37 37 36 36 36
45 46 46 46 47 47 46 46 46 46 46 46 46 45 45 45 44 44 44 44 44 43 43 43 43 42 41 40 39 39 39 39 38 38 38 37 37 36 36 36 36 35 35 34
45 45 46 46 46 46 45 45 45 44 44 44 44 44 43 43 44 44 44 43 42 42 41 40 40 39 39 38 37 37 37 37 37 37 36 36 35 34 34 34 34 34 33 32
44 45 45 45 45 44 44 44 43 43 42 42 43 43 43 43 43 43 43 42 40 40 39 38 37 36 36 36 35 35 35 35 35 35 35 34 33 32 32 32 32 32 31 30
42 43 43 43 42 42 42 42 42 42 42 42 41 41 41 41 41 41 40 39 37 36 36 35 34 33 33 34 34 33 33 33 33 33 33 33 32 31 30 30 30 30 30 30
40 41 41 41 41 41 41 40 41 42 41 41 39 39 39 38 38 38 36 35 34 33 32 32 31 31 31 31 31 30 30 30 30 30 30 30 30 29 29 29 28 29 29 29
40 40 40 40 41 41 41 40 41 41 40 39 38 37 36 35 35 34 33 32 31 30 29 29 28 29 29 28 28 28 28 28 27 28 27 27 27 27 28 28 28 28 28 28
37 37 37 37 38 39 39 38 38 38 37 36 34 33 33 33 32 31 30 30 29 28 27 26 26 26 25 25 25 25 25 25 25 26 26 26 26 26 26 26 26 27 27 27
37 37 37 37 36 36 35 35 34 33 33 32 31 31 31 30 29 28 28 27 26 26 26 25 24 23 23 23 23 23 23 23 24 25 25 25 25 25 25 25 25 25 25 25
36 36 36 35 34 34 33 32 31 30 29 29 28 28 28 28 27 26 26 25 25 25 24 23 22 22 22 22 22 22 22 23 23 24 24 24 24 24 25 25 24 24 24 24
Wind_Direction
289 289 288 287 286 286 286 286 285 285 284 284 282 282 283 282 281 280 280 278 278 277 277 276 275 274 274 273 273 273 274 273 271 269 269 268 267 267 267 268 269 269 269 269
286 286 285 285 285 285 285 284 284 284 284 282 282 282 283 283 283 281 280 279 278 277 278 276 274 275 274 273 272 272 273 272 272 270 269 268 268 267 267 268 269 270 270 270
285 284 283 283 283 283 282 282 282 282 282 282 284 284 284 284 283 281 280 279 279 279 278 277 275 274 274 274 273 273 272 272 272 271 270 270 269 268 268 269 269 269 269 269
286 284 284 285 283 281 280 280 280 281 281 282 283 284 284 284 283 282 281 280 280 280 279 277 275 273 273 273 273 273 272 271 272 272 271 271 270 269 269 269 269 269 269 269
285 285 285 285 284 283 281 279 280 280 280 281 282 282 283 282 283 283 283 282 281 280 279 277 276 274 273 273 274 273 272 271 272 272 271 270 270 268 268 268 269 269 269 269
284 284 284 286 285 283 281 280 280 279 280 280 281 281 282 282 282 283 284 282 281 280 279 278 276 274 273 273 272 272 271 271 271 270 271 270 269 268 268 268 269 269 269 269
283 283 284 287 285 283 282 282 281 280 280 280 281 282 283 283 282 282 282 282 281 280 279 278 276 275 273 273 271 271 270 270 270 270 270 270 270 269 268 268 269 269 268 268
283 283 286 285 284 283 282 280 280 280 279 280 281 282 283 283 282 281 281 281 280 279 279 278 276 275 273 272 271 270 270 269 269 269 269 269 269 269 268 269 269 267 267 268
279 281 283 282 282 281 280 280 279 278 278 279 281 282 281 281 281 280 280 279 279 279 278 277 276 275 273 272 270 270 270 269 268 268 268 269 269 269 269 269 268 267 267 267
278 278 278 278 278 277 277 278 278 277 279 279 279 280 279 279 278 278 279 279 278 278 277 276 275 274 273 271 270 269 269 269 268 267 267 268 269 269 269 268 267 267 267 267
277 277 275 275 275 275 276 277 278 278 278 278 278 277 278 277 276 276 277 278 278 277 276 276 275 274 272 270 269 268 269 269 268 267 266 266 267 268 267 267 266 266 266 267
277 276 275 275 275 276 276 277 278 278 277 277 277 276 276 276 276 276 276 277 278 278 277 276 276 274 272 270 269 269 268 267 267 266 266 266 266 266 267 266 266 266 266 267
277 276 275 276 276 276 277 278 278 278 277 276 276 276 276 276 276 276 276 277 278 277 277 277 276 275 274 273 271 270 269 267 267 266 266 266 266 266 266 265 265 265 265 267
275 275 275 275 275 276 277 278 277 277 276 276 276 275 275 276 276 276 276 277 277 277 277 277 277 275 274 274 273 270 269 267 266 266 266 266 266 266 265 264 264 264 265 266
275 275 276 276 276 276 276 277 277 276 276 276 276 275 276 276 276 276 275 276 276 277 278 277 278 277 275 274 273 270 268 266 265 264 265 265 265 264 264 264 264 264 264 264
275 275 275 276 276 276 276 277 277 277 277 277 276 276 276 276 276 276 275 276 277 277 277 277 277 277 275 274 272 270 267 265 264 263 263 263 263 262 262 262 263 263 264 264
276 275 274 275 276 276 277 277 278 278 277 277 277 277 277 277 276 275 275 276 277 277 277 276 276 276 275 273 271 268 265 263 262 261 262 262 262 261 261 261 262 262 263 262
277 277 277 277 277 277 277 277 277 277 277 278 278 277 277 277 276 275 275 275 275 275 275 275 274 274 273 271 269 266 263 261 260 260 260 261 261 260 260 260 260 261 262 261
278 278 278 279 278 277 277 278 278 277 277 277 277 277 276 276 275 275 275 275 275 274 273 272 272 272 270 268 266 264 263 261 259 258 259 260 260 259 258 258 259 260 260 261
279 278 278 278 278 278 278 278 278 278 277 276 276 276 275 275 276 276 276 276 276 275 273 272 271 270 268 266 265 264 262 260 258 257 257 258 258 258 257 257 258 259 259 259
278 277 277 277 278 278 279 279 279 278 278 277 276 276 275 275 277 277 276 276 275 273 273 272 271 270 266 264 263 262 261 260 258 256 255 256 256 256 256 256 256 256 256 257
279 278 278 278 278 278 278 279 279 279 279 279 277 276 275 275 276 276 276 276 274 272 272 272 270 269 266 264 263 260 258 257 256 255 254 254 254 254 254 254 254 254 254 256
280 279 278 278 278 278 277 278 278 279 279 278 277 276 275 275 275 276 275 275 273 272 271 270 268 267 266 264 262 258 255 254 253 252 251 251 251 252 252 252 253 254 255 256
282 280 280 279 279 278 278 279 279 279 279 278 277 276 275 274 274 274 274 274 272 270 269 268 267 265 263 261 259 256 253 252 250 249 249 249 249 249 250 252 253 254 255 256
283 282 282 282 281 280 280 280 280 278 278 277 276 275 274 273 273 272 272 273 271 268 267 267 265 262 260 258 256 254 252 250 248 247 247 247 247 248 250 252 254 255 255 255
283 284 284 283 284 284 282 282 282 280 278 277 275 273 271 270 271 271 271 271 269 267 266 265 262 259 256 254 253 252 251 250 248 246 246 247 247 248 249 252 254 254 253 254
283 284 285 285 285 284 283 282 283 281 279 277 275 272 269 268 269 271 271 271 268 266 264 261 258 255 253 252 252 251 251 250 248 246 246 247 247 247 249 251 252 253 254 256
Height
5670 5668 5665 5665 5665 5663 5661 5660 5658 5658 5657 5657 5653 5652 5650 5649 5648 5647 5646 5645 5644 5643 5642 5641 5640 5640 5639 5638 5638 5637 5637 5637 5637 5637 5637 5637 5637 5638 5638 5639 5639 5640 5640 5640
5661 5660 5657 5656 5657 5655 5653 5651 5650 5648 5649 5648 5645 5644 5642 5641 5639 5638 5637 5636 5635 5634 5633 5632 5631 5630 5630 5629 5629 5629 5628 5628 5628 5628 5628 5628 5628 5629 5629 5630 5630 5631 5631 5631
5651 5649 5647 5648 5649 5646 5644 5643 5641 5640 5640 5638 5636 5635 5633 5632 5630 5628 5627 5626 5625 5624 5623 5623 5622 5621 5620 5620 5620 5619 5619 5619 5619 5619 5619 5619 5619 5620 5620 5621 5621 5622 5622 5622
5639 5639 5637 5641 5638 5636 5634 5633 5631 5630 5629 5628 5627 5625 5624 5622 5620 5618 5617 5616 5615 5614 5613 5612 5611 5611 5610 5610 5610 5609 5609 5609 5609 5609 5609 5609 5610 5610 5611 5611 5612 5612 5612 5612
5628 5626 5625 5628 5628 5625 5622 5622 5621 5620 5619 5617 5616 5615 5614 5612 5610 5608 5607 5605 5604 5603 5602 5601 5601 5600 5599 5599 5599 5599 5599 5599 5599 5599 5600 5600 5600 5600 5601 5601 5602 5602 5602 5602
5617 5614 5614 5618 5616 5612 5611 5610 5611 5608 5607 5606 5605 5604 5604 5602 5600 5598 5596 5594 5593 5592 5591 5590 5589 5588 5588 5588 5588 5588 5588 5588 5588 5589 5589 5590 5590 5590 5591 5591 5591 5592 5592 5592
5605 5601 5602 5606 5603 5600 5600 5599 5597 5595 5595 5594 5593 5592 5592 5590 5588 5587 5585 5583 5582 5581 5580 5578 5577 5577 5577 5577 5577 5577 5577 5577 5578 5578 5578 5579 5579 5580 5580 5581 5581 5581 5582 5582
5593 5591 5594 5592 5590 5589 5587 5585 5584 5582 5581 5581 5580 5579 5578 5577 5576 5574 5573 5571 5570 5568 5568 5567 5565 5565 5565 5565 5565 5565 5565 5566 5566 5567 5567 5568 5568 5569 5569 5570 5570 5571 5571 5571
5581 5582 5581 5578 5576 5574 5573 5571 5570 5569 5568 5567 5567 5566 5565 5564 5563 5561 5560 5559 5557 5556 5555 5554 5553 5552 5552 5552 5552 5553 5553 5554 5554 5555 5555 5556 5557 5557 5558 5558 5559 5559 5560 5560
5567 5568 5567 5564 5562 5560 5558 5557 5555 5555 5554 5553 5552 5552 5551 5550 5549 5548 5547 5545 5544 5543 5542 5541 5540 5539 5539 5539 5539 5540 5540 5541 5542 5542 5543 5544 5544 5545 5546 5546 5547 5547 5548 5548
5551 5553 5551 5550 5547 5545 5543 5542 5541 5540 5540 5538 5537 5537 5536 5535 5535 5534 5533 5532 5530 5529 5528 5528 5527 5526 5525 5525 5525 5526 5527 5528 5528 5529 5530 5531 5532 5533 5534 5534 5534 5536 5536 5537
5536 5537 5533 5533 5532 5530 5528 5527 5526 5525 5524 5524 5522 5521 5520 5520 5519 5519 5518 5517 5516 5515 5514 5513 5512 5512 5511 5511 5511 5512 5513 5513 5514 5516 5517 5518 5519 5520 5521 5522 5522 5523 5524 5525
5520 5519 5517 5517 5516 5515 5513 5512 5511 5509 5508 5508 5507 5506 5505 5505 5504 5503 5503 5502 5501 5500 5500 5499 5498 5498 5497 5497 5496 5497 5498 5499 5500 5502 5503 5505 5506 5507 5508 5509 5510 5511 5512 5512
5504 5502 5501 5501 5501 5500 5498 5496 5495 5494 5493 5492 5492 5491 5490 5490 5489 5489 5488 5487 5487 5486 5485 5484 5484 5483 5483 5482 5482 5482 5483 5485 5486 5488 5489 5491 5492 5493 5495 5496 5498 5499 5499 5500
5489 5487 5485 5485 5485 5484 5482 5481 5480 5479 5478 5478 5477 5476 5475 5475 5475 5474 5474 5473 5472 5471 5471 5470 5469 5469 5468 5467 5467 5468 5469 5470 5472 5473 5475 5477 5478 5480 5481 5483 5484 5486 5487 5488
5473 5471 5470 5469 5469 5468 5467 5466 5465 5464 5463 5463 5462 5462 5461 5460 5460 5459 5459 5458 5457 5457 5456 5455 5454 5454 5453 5452 5452 5453 5454 5456 5457 5459 5461 5463 5465 5466 5468 5470 5471 5473 5474 5475
5456 5456 5455 5454 5454 5453 5452 5451 5450 5449 5449 5448 5448 5447 5446 5445 5445 5445 5444 5444 5443 5442 5442 5441 5440 5439 5438 5438 5438 5439 5440 5442 5444 5445 5447 5449 5451 5453 5455 5457 5458 5460 5462 5463
5441 5440 5440 5439 5438 5437 5437 5437 5436 5435 5434 5434 5433 5432 5432 5431 5430 5430 5430 5429 5429 5429 5428 5426 5425 5424 5424 5424 5424 5425 5427 5428 5430 5432 5434 5436 5438 5440 5442 5444 5446 5448 5449 5450
5427 5426 5425 5424 5423 5422 5422 5422 5421 5421 5420 5419 5418 5418 5417 5417 5416 5415 5415 5415 5414 5414 5414 5412 5411 5410 5410 5410 5411 5412 5413 5415 5417 5420 5421 5423 5425 5428 5430 5432 5433 5435 5437 5439
5414 5413 5411 5410 5409 5409 5408 5407 5407 5406 5406 5404 5404 5403 5403 5403 5402 5401 5401 5400 5400 5399 5398 5398 5397 5397 5397 5398 5398 5400 5401 5403 5405 5407 5409 5411 5414 5416 5418 5420 5422 5424 5426 5428
5401 5399 5398 5397 5396 5395 5395 5393 5392 5392 5391 5390 5389 5389 5388 5389 5388 5387 5386 5387 5387 5385 5385 5385 5385 5385 5385 5385 5386 5388 5389 5391 5393 5395 5397 5400 5402 5405 5407 5409 5411 5413 5415 5417
5387 5385 5384 5383 5383 5382 5381 5380 5379 5378 5377 5377 5376 5375 5374 5374 5374 5374 5373 5373 5373 5373 5372 5372 5372 5373 5373 5373 5374 5376 5378 5380 5382 5384 5386 5389 5391 5394 5396 5399 5401 5403 5405 5407
5374 5373 5372 5371 5369 5368 5368 5367 5366 5364 5363 5363 5363 5362 5361 5361 5361 5361 5361 5362 5361 5361 5360 5361 5361 5361 5362 5362 5363 5365 5367 5369 5371 5374 5376 5379 5381 5384 5387 5389 5391 5393 5396 5397
5362 5361 5359 5358 5357 5355 5355 5355 5353 5351 5350 5350 5350 5349 5349 5349 5349 5350 5349 5349 5350 5350 5350 5350 5350 5351 5351 5352 5354 5355 5357 5359 5362 5364 5367 5369 5372 5375 5377 5380 5382 5384 5386 5388
5350 5349 5347 5346 5344 5343 5342 5341 5340 5339 5338 5338 5338 5338 5338 5337 5338 5339 5339 5339 5339 5339 5340 5340 5341 5342 5342 5344 5345 5347 5349 5351 5353 5356 5359 5361 5364 5366 5369 5371 5373 5375 5377 5379
5339 5337 5336 5334 5332 5331 5329 5328 5327 5327 5326 5326 5327 5327 5327 5327 5328 5328 5329 5329 5329 5330 5331 5332 5332 5334 5335 5336 5338 5340 5342 5343 5345 5348 5351 5353 5356 5358 5360 5363 5365 5367 5369 5370
5327 5326 5324 5323 5322 5320 5318 5317 5316 5316 5316 5315 5316 5317 5317 5318 5318 5319 5319 5320 5320 5321 5322 5323 5324 5326 5328 5329 5331 5333 5334 5336 5338 5340 5343 5345 5348 5350 5352 5354 5357 5359 5360 5362